Location: Avully
(45.9633°N, 6.0228°E)
Time: 13:14:01
(UTC+00:00)

Cosmos 1300 - Pass Details

Date: 23 May 2024
Orbit: 465 x 468 km, 82.5° (Epoch: 16 June)

Event Time Altitude Azimuth Distance (km) Brightness Sun altitude
Rises 00:54:55 0° 339° (NNW) 2,515 6.9 -20.8°
Reaches altitude 10° 00:57:14 10° 326° (NNW) 1,632 5.7 -20.7°
Enters shadow 00:59:37 24° 287° (WNW) 1,009 4.1 -20.5°
